CAPE
11 147 87 30 5 467 749 793 841 1234 1366 1144 1462 1831 1898 2192 2227 2225 2106 1726 1373 814 886 897 959 784 695 496 345 302 291 285 325 128 3 9 58 154 237 89 10 49 50
0 6 212 166 5 567 753 573 717 1136 1159 1089 1510 1692 1969 2261 2125 2065 1913 1472 1031 826 903 969 935 496 714 550 410 482 389 289 272 477 9 15 28 80 69 78 24 70 68
0 0 228 288 31 554 753 856 1057 1165 1247 1242 1480 1757 2071 2147 2080 1905 1790 1285 937 791 709 1068 924 635 623 439 439 486 504 432 312 228 76 23 20 63 13 8 5 19 20
0 5 464 487 95 673 950 1349 1494 1266 1330 1540 1668 1792 2037 2072 1884 1748 1550 955 989 839 711 928 670 544 605 614 574 691 694 429 298 258 126 56 18 12 35 8 1 43 5
6 80 669 914 48 377 996 1280 1424 1451 1537 1630 1830 1970 2157 1921 1644 1641 1101 919 986 795 718 534 531 278 138 418 560 720 598 457 302 208 96 35 16 30 56 24 30 52 2
4 226 782 1183 157 767 1193 1425 1594 1561 1675 1860 1997 2079 2109 1600 1636 1079 971 1007 817 750 626 494 373 3 4 0 0 2 253 577 142 159 59 121 40 29 17 90 2 55 5
35 192 1065 1373 854 925 1334 1514 1464 1563 1599 1881 2241 2074 2139 1726 1072 1148 896 795 795 728 777 667 334 113 35 6 0 0 0 0 62 154 77 141 130 19 57 37 26 39 10
10 311 1153 1385 1319 1461 1647 1339 1471 1488 1721 1920 1961 2193 1984 1196 1135 958 726 767 742 687 733 662 553 409 226 100 18 29 96 72 15 44 15 180 45 36 59 27 77 30 1
27 150 1132 1601 1802 1433 1522 1586 1532 1479 1565 1826 1866 1679 1345 1232 1022 823 138 707 568 475 373 365 447 361 0 0 23 8 10 16 10 12 6 20 11 13 29 5 10 41 3
49 62 419 1448 1855 1811 1721 1632 1276 1536 1955 1422 1657 1245 1120 1055 835 348 200 418 462 319 215 28 0 1 0 0 53 4 20 5 14 19 28 29 17 17 10 20 20 20 6
79 59 202 1119 1706 1395 1457 1692 1772 1311 1081 1367 1174 1013 813 448 285 129 51 422 302 61 10 0 0 0 0 0 1 36 16 12 13 7 22 21 23 15 11 18 85 70 18
28 87 519 1136 1101 1426 1608 1285 1179 1025 1067 1190 1093 676 98 121 200 84 23 80 31 63 4 0 0 0 0 8 3 20 13 26 14 36 44 29 21 1 5 10 9 35 35
177 209 681 762 762 765 704 820 842 739 1027 734 370 46 60 141 48 32 19 9 0 82 4 0 0 0 0 5 9 11 13 28 35 1 2 3 2 0 4 8 43 34 10
82 263 759 487 508 431 423 420 568 542 405 192 32 19 1 0 0 5 1 1 0 3 2 0 0 0 11 10 18 20 16 13 5 4 1 0 0 0 0 0 22 10 15
144 290 303 445 317 279 305 480 469 475 83 48 39 3 0 1 8 0 1 3 0 3 3 2 2 3 19 14 10 8 6 2 6 0 0 0 0 0 3 7 6 48 42
161 298 314 309 261 157 167 96 58 33 31 40 26 13 5 5 0 0 3 1 1 2 2 2 2 5 25 14 8 2 4 5 2 4 3 3 5 3 1 5 6 36 0
102 63 101 260 181 151 20 34 71 80 37 31 24 1 0 0 0 0 0 3 2 2 1 8 10 24 34 5 10 0 19 0 4 6 5 11 9 6 8 9 0 2 0
143 34 29 34 75 74 58 41 36 33 49 3 0 0 0 0 0 0 0 1 0 3 12 8 21 15 42 14 1 25 26 0 3 3 5 0 3 5 1 1 1 0 32
12 73 207 148 90 52 29 34 17 14 0 0 0 0 0 0 0 0 0 0 2 19 19 7 13 4 14 40 30 14 1 10 3 2 17 5 6 0 6 4 6 38 14
103 23 88 42 6 7 36 58 48 8 0 0 0 3 0 0 0 0 0 0 6 20 28 25 21 16 12 30 18 6 6 3 0 0 0 0 7 6 0 18 2 2 1
37 18 9 28 50 61 86 74 15 13 0 0 5 14 15 0 0 0 7 19 16 12 3 2 0 70 8 99 35 41 18 16 10 1 4 0 1 1 6 9 5 8 4
20 79 211 132 71 67 37 7 44 37 20 6 7 5 7 0 19 21 0 0 0 1 3 5 5 9 94 74 18 12 10 5 5 5 5 7 0 0 0 1 5 5 5
325 292 86 29 19 16 12 24 14 25 61 29 6 4 26 5 14 14 15 18 7 0 11 8 10 4 3 7 15 6 10 8 5 9 5 20 2 24 35 16 5 4 0
373 281 55 72 33 4 4 1 1 25 19 75 13 16 9 12 7 1 5 37 10 7 4 3 4 12 7 2 4 25 0 12 3 12 6 43 47 35 72 32 32 37 44
384 272 82 40 1 0 0 0 16 30 37 5 26 16 13 14 1 6 39 31 17 2 8 15 18 12 20 9 12 16 0 0 5 10 32 33 38 40 38 64 68 48 95
400 219 61 68 32 0 0 2 9 18 10 20 10 4 16 1 0 8 4 20 22 25 12 5 17 16 32 15 7 4 6 9 56 45 33 30 33 27 57 62 80 68 60
CIN
-4 -113 -236 -279 -55 -322 -304 -377 -389 -365 -323 -279 -210 -233 -223 -148 -81 -39 -20 -12 -23 -38 -25 -6 -7 -17 -11 -20 -22 -13 -1 -0 -0 -6 -0 -0 -13 -2 -0 -11 -40 -40 -33
-0 -0 -179 -238 -62 -313 -339 -422 -398 -337 -292 -240 -199 -208 -163 -92 -60 -35 -14 -15 -46 -35 -11 -7 -4 -33 -2 -3 -2 -1 -0 -3 -0 -0 -0 -0 -8 -26 -0 -0 -15 -15 -21
-0 -0 -148 -201 -552 -359 -380 -392 -346 -297 -266 -217 -189 -171 -122 -74 -47 -23 -4 -17 -21 -23 -55 -10 -2 -6 -0 -3 -0 -0 -0 -0 -0 -0 -6 -22 -0 -1 -21 -9 -19 -17 -29
-0 -94 -41 -146 -519 -356 -350 -302 -287 -273 -224 -197 -192 -153 -78 -46 -33 -11 -5 -18 -11 -2 -6 -6 -7 -4 -0 -0 -0 -0 -0 -0 -0 -0 -0 -2 -10 -3 -2 -0 -3 -2 -0
-4 -154 -14 -65 -529 -399 -301 -294 -275 -255 -217 -197 -148 -75 -29 -30 -23 -8 -15 -19 -7 -6 -14 -19 -6 -24 -31 -5 -0 -0 -0 -0 -0 -0 -0 -17 -15 -0 -4 -3 -18 -2 -0
-76 -46 -15 -23 -374 -311 -269 -245 -265 -255 -207 -149 -98 -52 -30 -30 -3 -30 -14 -1 -9 -12 -8 -5 -11 -137 -175 -0 -0 -26 -3 -0 -7 -0 -2 -2 -5 -3 -13 -0 -9 -0 -0
-4 -36 -4 -8 -174 -264 -224 -213 -259 -252 -216 -142 -60 -40 -15 -11 -16 -10 -14 -13 -13 -4 -1 -2 -10 -28 -56 -6 -0 -0 -0 -8 -9 -1 -4 -0 -1 -17 -0 -4 -0 -3 -0
-46 -3 -0 -0 -69 -142 -169 -219 -242 -245 -168 -112 -58 -7 -9 -18 -7 -9 -7 -20 -8 -7 -6 -7 -4 -4 -5 -12 -20 -15 -0 -2 -7 -1 -0 -0 -9 -6 -3 -6 -1 -0 -0
-4 -9 -0 -0 -6 -110 -164 -143 -174 -174 -125 -50 -23 -17 -14 -5 -7 -2 -99 -12 -12 -11 -12 -7 -0 -0 -0 -0 -16 -9 -16 -14 -2 -1 -0 -2 -10 -1 -16 -9 -1 -0 -5
-4 -26 -64 -0 -0 -42 -78 -117 -166 -89 -16 -25 -9 -16 -12 -9 -6 -46 -85 -14 -9 -7 -11 -42 -0 -0 -0 -0 -6 -0 -37 -2 -1 -2 -4 -4 -7 -0 -22 -8 -1 -0 -9
-19 -73 -110 -12 -0 -49 -53 -32 -10 -23 -31 -7 -3 -0 -5 -41 -65 -75 -81 -15 -12 -41 -35 -0 -0 -0 -0 -0 -1 -13 -6 -3 -0 -0 -1 -0 -0 -8 -16 -0 -1 -0 -0
-71 -126 -31 -6 -23 -20 -5 -16 -21 -37 -11 -0 -0 -9 -107 -77 -49 -60 -112 -57 -50 -26 -0 -0 -0 -0 -0 -31 -5 -12 -11 -0 -2 -0 -0 -0 -1 -2 -0 -0 -0 -0 -8
-68 -78 -5 -10 -36 -36 -50 -32 -21 -36 -3 -3 -49 -112 -80 -51 -68 -78 -99 -90 -0 -13 -0 -0 -0 -0 -1 -8 -26 -28 -5 -4 -0 -1 -0 -0 -0 -0 -0 -0 -0 -0 -0
-78 -14 -0 -26 -39 -43 -55 -48 -60 -23 -19 -61 -113 -92 -16 -0 -3 -35 -11 -0 -0 -16 -15 -0 -0 -0 -5 -5 -25 -13 -16 -6 -2 -21 -18 -0 -0 -0 -0 -0 -0 -1 -0
-20 -2 -11 -1 -19 -38 -34 -28 -34 -26 -98 -96 -75 -23 -0 -23 -44 -0 -0 -35 -6 -15 -0 -1 -0 -2 -6 -13 -6 -13 -10 -1 -0 -0 -0 -0 -0 -0 -0 -0 -0 -0 -0
-6 -0 -0 -8 -10 -71 -18 -103 -39 -29 -42 -24 -6 -12 -11 -12 -0 -0 -0 -1 -4 -6 -3 -3 -2 -1 -8 -10 -2 -1 -4 -0 -0 -0 -0 -0 -5 -0 -0 -4 -1 -0 -0
-2 -5 -1 -1 -26 -0 -64 -69 -50 -36 -11 -2 -10 -2 -0 -0 -0 -0 -0 -2 -0 -2 -0 -1 -9 -4 -0 -5 -0 -0 -3 -0 -0 -0 -0 -0 -0 -0 -0 -0 -0 -0 -0
-45 -13 -47 -2 -0 -21 -27 -33 -39 -37 -24 -0 -0 -0 -0 -0 -0 -0 -0 -0 -0 -0 -0 -10 -0 -0 -0 -0 -0 -2 -0 -0 -0 -0 -0 -0 -0 -0 -0 -0 -0 -0 -0
-3 -70 -13 -6 -4 -20 -22 -18 -5 -5 -0 -0 -0 -0 -0 -0 -0 -0 -0 -0 -4 -0 -2 -8 -2 -3 -7 -0 -1 -1 -0 -0 -0 -0 -0 -1 -0 -0 -0 -0 -0 -1 -0
-6 -29 -52 -27 -4 -2 -5 -5 -2 -6 -0 -0 -0 -1 -1 -0 -0 -0 -0 -0 -5 -0 -0 -2 -0 -1 -4 -0 -0 -0 -0 -0 -0 -0 -0 -0 -0 -0 -0 -3 -8 -0 -2
-6 -11 -5 -4 -3 -4 -3 -1 -5 -4 -0 -0 -2 -1 -1 -3 -0 -0 -8 -1 -0 -0 -8 -0 -0 -0 -0 -0 -0 -0 -9 -1 -1 -0 -0 -0 -12 -10 -7 -3 -4 -5 -3
-3 -4 -2 -1 -3 -3 -8 -7 -6 -4 -8 -5 -1 -11 -0 -0 -13 -4 -0 -0 -0 -0 -0 -2 -0 -0 -0 -0 -4 -7 -0 -1 -0 -0 -6 -1 -0 -0 -0 -0 -2 -0 -1
-0 -0 -13 -14 -14 -12 -8 -7 -12 -10 -1 -0 -0 -0 -0 -6 -6 -7 -2 -3 -6 -0 -0 -0 -0 -0 -0 -2 -0 -2 -1 -0 -0 -3 -5 -0 -0 -0 -0 -0 -0 -3 -0
-8 -20 -23 -19 -16 -1 -2 -2 -4 -4 -2 -3 -0 -0 -14 -3 -12 -5 -1 -0 -0 -5 -0 -8 -0 -7 -0 -0 -0 -0 -0 -0 -0 -1 -0 -0 -0 -0 -0 -0 -0 -0 -1
-18 -20 -31 -3 -0 -0 -0 -0 -2 -1 -34 -0 -1 -9 -12 -6 -2 -7 -1 -0 -7 -10 -3 -1 -6 -11 -3 -5 -7 -5 -0 -0 -6 -0 -0 -0 -0 -0 -0 -0 -0 -0 -0
-15 -29 -31 -25 -3 -0 -0 -1 -1 -0 -0 -2 -3 -3 -6 -12 -3 -2 -4 -2 -0 -3 -7 -1 -9 -0 -6 -0 -0 -3 -0 -6 -0 -0 -4 -10 -9 -4 -2 -7 -0 -0 -0
Wind_Speed
nan 62 nan nan nan 44 44 44 46 43 45 50 47 45 45 41 39 40 38 35 36 34 33 33 28 28 29 31 31 28 26 22 21 28 nan nan nan 23 20 nan nan nan nan
nan nan 62 53 nan 45 44 45 47 45 44 48 45 46 41 37 38 40 37 35 35 34 33 32 29 29 32 33 31 30 27 27 22 24 nan nan nan nan nan nan nan nan nan
nan nan 63 55 nan 45 45 47 46 45 45 40 44 42 36 37 39 37 36 35 34 34 33 32 29 32 34 34 32 32 30 29 26 24 nan nan nan nan nan nan nan nan nan
nan nan 64 54 nan 45 46 47 50 49 45 41 41 35 34 38 40 36 37 36 36 34 31 30 31 33 34 35 33 32 31 28 27 26 27 nan nan nan nan nan nan nan nan
nan nan 65 55 nan 47 48 47 52 50 43 41 41 37 37 39 37 37 38 37 36 34 31 29 31 33 35 35 32 31 31 27 27 29 nan nan nan nan nan nan nan nan nan
nan 72 66 56 48 46 50 51 54 51 45 40 37 36 37 34 41 43 37 35 34 32 31 30 32 nan nan nan nan nan 27 29 28 29 nan 20 nan nan nan nan nan nan nan
nan 60 60 53 47 47 52 55 53 48 45 38 36 36 34 36 39 38 37 33 32 30 30 31 31 30 nan nan nan nan nan nan nan 28 nan 18 15 nan nan nan nan nan nan
nan 55 56 51 51 50 56 51 50 48 43 39 38 35 34 35 35 36 34 32 29 29 30 29 29 28 27 27 nan nan nan nan nan nan nan 14 nan nan nan nan nan nan nan
nan 49 55 53 49 52 52 49 49 49 40 37 34 35 38 35 34 34 29 29 29 30 28 28 26 27 nan nan nan nan nan nan nan nan nan nan nan nan nan nan nan nan nan
nan nan 50 52 48 46 47 50 49 41 38 37 38 39 37 33 29 30 27 27 28 28 28 nan nan nan nan nan nan nan nan nan nan nan nan nan nan nan nan nan nan nan nan
nan nan 49 42 40 47 51 50 46 42 40 40 42 39 33 30 29 27 nan 25 26 nan nan nan nan nan nan nan nan nan nan nan nan nan nan nan nan nan nan nan nan nan nan
nan nan 43 32 34 41 46 46 43 40 39 42 37 34 nan 31 29 nan nan nan nan nan nan nan nan nan nan nan nan nan nan nan nan nan nan nan nan nan nan nan nan nan nan
36 35 36 33 33 33 35 38 38 38 38 34 29 nan nan 28 nan nan nan nan nan nan nan nan nan nan nan nan nan nan nan nan nan nan nan nan nan nan nan nan nan nan nan
nan 39 33 36 31 31 32 34 36 40 35 31 nan nan nan nan nan nan nan nan nan nan nan nan nan nan nan nan nan nan nan nan nan nan nan nan nan nan nan nan nan nan nan
26 36 36 37 34 36 35 36 35 27 nan nan nan nan nan nan nan nan nan nan nan nan nan nan nan nan nan nan nan nan nan nan nan nan nan nan nan nan nan nan nan nan nan
25 37 38 40 37 37 39 nan nan nan nan nan nan nan nan nan nan nan nan nan nan nan nan nan nan nan nan nan nan nan nan nan nan nan nan nan nan nan nan nan nan nan nan
32 nan 36 44 42 32 nan nan nan nan nan nan nan nan nan nan nan nan nan nan nan nan nan nan nan nan nan nan nan nan nan nan nan nan nan nan nan nan nan nan nan nan nan
30 nan nan nan nan nan nan nan nan nan nan nan nan nan nan nan nan nan nan nan nan nan nan nan nan nan nan nan nan nan nan nan nan nan nan nan nan nan nan nan nan nan nan
nan nan 26 27 nan nan nan nan nan nan nan nan nan nan nan nan nan nan nan nan nan nan nan nan nan nan nan nan nan nan nan nan nan nan nan nan nan nan nan nan nan nan nan
24 nan nan nan nan nan nan nan nan nan nan nan nan nan nan nan nan nan nan nan nan nan nan nan nan nan nan nan nan nan nan nan nan nan nan nan nan nan nan nan nan nan nan
nan nan nan nan nan nan nan nan nan nan nan nan nan nan nan nan nan nan nan nan nan nan nan nan nan nan nan nan nan nan nan nan nan nan nan nan nan nan nan nan nan nan nan
nan nan 18 16 nan nan nan nan nan nan nan nan nan nan nan nan nan nan nan nan nan nan nan nan nan nan nan nan nan nan nan nan nan nan nan nan nan nan nan nan nan nan nan
16 15 nan nan nan nan nan nan nan nan nan nan nan nan nan nan nan nan nan nan nan nan nan nan nan nan nan nan nan nan nan nan nan nan nan nan nan nan nan nan nan nan nan
15 14 nan nan nan nan nan nan nan nan nan nan nan nan nan nan nan nan nan nan nan nan nan nan nan nan nan nan nan nan nan nan nan nan nan nan nan nan nan nan nan nan nan
17 15 nan nan nan nan nan nan nan nan nan nan nan nan nan nan nan nan nan nan nan nan nan nan nan nan nan nan nan nan nan nan nan nan nan nan nan nan nan nan nan nan nan
16 16 nan nan nan nan nan nan nan nan nan nan nan nan nan nan nan nan nan nan nan nan nan nan nan nan nan nan nan nan nan nan nan nan nan nan nan nan nan nan nan nan nan
Wind_Direction
nan 227 nan nan nan 253 257 259 262 267 266 272 270 272 274 281 288 288 292 291 293 294 289 294 305 300 297 293 297 303 310 307 307 299 nan nan nan 290 287 nan nan nan nan
nan nan 223 232 nan 249 255 259 262 264 268 271 272 270 273 282 286 290 290 286 292 291 291 304 303 295 296 293 296 303 307 304 299 304 nan nan nan nan nan nan nan nan nan
nan nan 218 224 nan 247 253 258 264 266 266 267 267 271 276 280 285 287 288 286 288 289 293 304 301 297 296 292 294 298 304 300 296 298 nan nan nan nan nan nan nan nan nan
nan nan 210 217 nan 240 248 256 260 262 263 266 269 271 274 276 280 282 281 282 282 284 290 295 297 298 297 293 294 298 302 299 293 299 290 nan nan nan nan nan nan nan nan
nan nan 204 211 nan 228 240 248 254 260 262 267 271 273 276 272 272 275 276 276 281 284 290 293 296 294 291 292 290 297 301 296 295 297 nan nan nan nan nan nan nan nan nan
nan 207 200 206 218 226 236 244 249 256 263 270 274 274 271 265 263 271 273 277 280 287 293 294 291 nan nan nan nan nan 294 298 297 294 nan 276 nan nan nan nan nan nan nan
nan 198 196 206 216 224 233 241 247 254 262 271 265 267 270 261 270 273 276 273 284 291 293 292 292 290 nan nan nan nan nan nan nan 294 nan 270 251 nan nan nan nan nan nan
nan 188 189 205 215 223 232 240 247 250 257 259 260 265 260 257 271 273 276 282 284 288 291 293 292 289 294 296 nan nan nan nan nan nan nan 245 nan nan nan nan nan nan nan
nan 171 186 198 211 222 231 238 243 246 249 252 257 255 255 256 263 273 281 283 284 287 285 286 284 291 nan nan nan nan nan nan nan nan nan nan nan nan nan nan nan nan nan
nan nan 182 188 206 219 226 233 237 240 245 243 241 246 252 259 258 273 279 278 284 280 279 nan nan nan nan nan nan nan nan nan nan nan nan nan nan nan nan nan nan nan nan
nan nan 181 186 200 211 219 225 233 236 237 238 236 237 244 252 260 268 nan 279 279 nan nan nan nan nan nan nan nan nan nan nan nan nan nan nan nan nan nan nan nan nan nan
nan nan 171 183 198 212 222 226 231 235 239 233 236 237 nan 248 256 nan nan nan nan nan nan nan nan nan nan nan nan nan nan nan nan nan nan nan nan nan nan nan nan nan nan
156 164 172 192 204 211 219 229 223 221 231 231 231 nan nan 245 nan nan nan nan nan nan nan nan nan nan nan nan nan nan nan nan nan nan nan nan nan nan nan nan nan nan nan
nan 168 192 195 198 206 208 215 220 220 218 227 nan nan nan nan nan nan nan nan nan nan nan nan nan nan nan nan nan nan nan nan nan nan nan nan nan nan nan nan nan nan nan
173 189 196 194 195 201 201 221 210 193 nan nan nan nan nan nan nan nan nan nan nan nan nan nan nan nan nan nan nan nan nan nan nan nan nan nan nan nan nan nan nan nan nan
196 190 194 192 192 198 208 nan nan nan nan nan nan nan nan nan nan nan nan nan nan nan nan nan nan nan nan nan nan nan nan nan nan nan nan nan nan nan nan nan nan nan nan
199 nan 201 199 201 186 nan nan nan nan nan nan nan nan nan nan nan nan nan nan nan nan nan nan nan nan nan nan nan nan nan nan nan nan nan nan nan nan nan nan nan nan nan
198 nan nan nan nan nan nan nan nan nan nan nan nan nan nan nan nan nan nan nan nan nan nan nan nan nan nan nan nan nan nan nan nan nan nan nan nan nan nan nan nan nan nan
nan nan 210 173 nan nan nan nan nan nan nan nan nan nan nan nan nan nan nan nan nan nan nan nan nan nan nan nan nan nan nan nan nan nan nan nan nan nan nan nan nan nan nan
171 nan nan nan nan nan nan nan nan nan nan nan nan nan nan nan nan nan nan nan nan nan nan nan nan nan nan nan nan nan nan nan nan nan nan nan nan nan nan nan nan nan nan
nan nan nan nan nan nan nan nan nan nan nan nan nan nan nan nan nan nan nan nan nan nan nan nan nan nan nan nan nan nan nan nan nan nan nan nan nan nan nan nan nan nan nan
nan nan 171 174 nan nan nan nan nan nan nan nan nan nan nan nan nan nan nan nan nan nan nan nan nan nan nan nan nan nan nan nan nan nan nan nan nan nan nan nan nan nan nan
165 176 nan nan nan nan nan nan nan nan nan nan nan nan nan nan nan nan nan nan nan nan nan nan nan nan nan nan nan nan nan nan nan nan nan nan nan nan nan nan nan nan nan
173 176 nan nan nan nan nan nan nan nan nan nan nan nan nan nan nan nan nan nan nan nan nan nan nan nan nan nan nan nan nan nan nan nan nan nan nan nan nan nan nan nan nan
173 169 nan nan nan nan nan nan nan nan nan nan nan nan nan nan nan nan nan nan nan nan nan nan nan nan nan nan nan nan nan nan nan nan nan nan nan nan nan nan nan nan nan
172 177 nan nan nan nan nan nan nan nan nan nan nan nan nan nan nan nan nan nan nan nan nan nan nan nan nan nan nan nan nan nan nan nan nan nan nan nan nan nan nan nan nan